User: anonymous   Login
Location: Mount Wilson Observatory
(34.2257°N, 118.0571°W)
Time: 01:38:56
(UTC-08:00)
Language:

ATLAS 3B CENTAUR R/B - Orbit

View from above orbital plane
View from above orbital plane
View from above satellite
View from above satellite

Ground track
Ground track

The orbit data is extracted from the following two-line orbital elements,

1 28118U 03057B   14351.46717862  .00098469  00000-0  22197-2 0  9517
2 28118 028.1382 119.0297 3752596 342.7231 041.2023 07.98111807209975
Epoch (UTC): 17 December 2014 11:12:44
Eccentricity: 0.3752596
inclination: 28.1382°
perigee height: 230 km
apogee height: 8168 km
right ascension of ascending node: 119.0297°
argument of perigee: 342.7231°
revolutions per day: 7.98111807
mean anomaly at epoch: 41.2023°
orbit number at epoch: 20997

The dashed part of the orbit path shows where the satellite is in the earth's shadow,  

DLR